Regional Weather Roundup
Issued by NWS Charleston, SC

Current Version | Previous Version | Graphics & Text | Print | Product List | Glossary On
Versions: 1 2 3 4 5 6 7 8 9 10 11 12 13 14 15 16 17 18 19 20 21 22 23 24 25 26 27 28 29 30 31 32 33 34 35 36 37 38 39 40 41 42 43 44 45 46 47 48 49 50
000 ASUS42 KCHS 260225 RWRCHS REGIONAL WEATHER ROUNDUP NATIONAL WEATHER SERVICE CHARLESTON SC 900 PM EST SUN JAN 25 2015 NOTE: "FAIR" INDICATES FEW OR NO CLOUDS BELOW 12,000 FEET WITH NO SIGNIFICANT WEATHER AND/OR OBSTRUCTIONS TO VISIBILITY. NOT ALL STATIONS ARE QUALITY CONTROLLED BY THE NATIONAL WEATHER SERVICE. USE DATA WITH CAUTION...ESPECIALLY DEWPOINT OBSERVATIONS. SCZ027-030-031-034>040-042>050-260300- ...SOUTHEAST SOUTH CAROLINA... CITY SKY/WX TMP DP RH WIND PRES REMARKS N CHARLESTON CLEAR 46 39 76 SW3 29.88S WATERFRONT PRK N/A 52 N/A N/A SW5 N/A MOUNT PLEASANT FAIR N/A N/A N/A CALM 29.87S PINOPOLIS NOT AVBL MONCKS CORNER FAIR 46 39 76 SW7 29.86S SUMMERVILLE FAIR 45 41 87 CALM 29.87S BEAUFORT MCAS CLEAR 49 44 83 S6 29.87S BEAUFORT ARPT FAIR 50 46 87 S6 29.87F HILTON HEAD IS CLEAR 52 46 82 S7 29.88F WALTERBORO CLEAR 45 45 100 S5 29.88R ALLENDALE FAIR 45 36 70 CALM 29.85R ...SOUTHERN MIDLANDS AND PEE DEE... CITY SKY/WX TMP DP RH WIND PRES REMARKS GEORGETOWN NOT AVBL KINGSTREE NOT AVBL ORANGEBURG CLEAR 46 37 71 S5 29.84S BARNWELL FAIR 45 34 65 CALM 29.86R AIKEN FAIR 45 32 61 S6 29.86R MANNING NOT AVBL COLUMBIA CLEAR 43 33 68 W3 29.83R SUMTER CLEAR 43 37 78 W2 29.82S FLORENCE CLEAR 46 36 68 S8 29.83F MYRTLE BEACH CLEAR 48 43 81 S6 29.88 N MYRTLE BEACH CLEAR 51 44 77 S8 29.85F $$ GAZ063-065-086>088-099>101-113>116-118-119-134>141-150-260300- ...SOUTHEAST GEORGIA... CITY SKY/WX TMP DP RH WIND PRES REMARKS SAVANNAH ARPT CLEAR 46 40 79 S7 29.87F HUNTER AAF CLEAR 49 42 77 S5 29.86R FORT STEWART CLEAR 46 36 66 SE2 29.86S STATESBORO CLEAR 41 37 86 CALM 29.85S SYLVANIA CLEAR 44 38 79 CALM 29.86R CLAXTON FAIR 41 37 87 CALM 29.85F ...CSRA...CENTRAL AND FAR SOUTHEAST GEORGIA... CITY SKY/WX TMP DP RH WIND PRES REMARKS THOMSON PTCLDY 50 35 57 S3 29.85F AUGUSTA-BUSH CLEAR 39 31 72 S3 29.85R AUGUSTA-DANIEL CLEAR 51 31 46 S6 29.84R SWAINSBORO FAIR 50 27 40 S3 29.85R VIDALIA CLEAR 50 36 57 S9 29.85R EASTMAN FAIR 52 42 67 SW7 29.85F HAZLEHURST FAIR 53 40 61 SW8 29.85S ALMA CLEAR 51 39 63 S12 29.87S WAYCROSS CLEAR 55 47 74 SW9 29.90R JESUP FAIR 52 41 66 SW6 29.90R BAXLEY FAIR 54 41 62 SW8G16 29.86F BRUNSWICK CLEAR 54 37 54 SW12 29.91S SAINT SIMONS CLEAR 56 35 45 SW10 29.90F $$ SCZ027-028-034-036>038-045-046-048>050-GAZ119-141-260300- ...LAKE AND SUPPLEMENTAL COASTAL OBSERVATIONS... STATION/POSITION TIME TEMP WIND PRES WAVE SWELL AIR SEA DIR/SP/G HT/PER HT/PER/DIR (UTC) (F) (DEG/KT/KT) (MB) (FT/S) (FT/S/D) UPR LAKE MARION NOT AVBL WINYAH BAY 0200 45 240/ 1 1010.0S LAKE MURRAY 0100 52 220/ 4/ 8 1009.1R ACE BASIN NERRS NOT AVBL FORT PULASKI 0200 53 53 200/ 8/ 11 1012.3R SAPELO ISLAND 0200 51 190/ 8 1012.0S $$ ANZ835-935-AMZ111-154-330-350-352-354-370-450-454-472-260300- ...C-MAN AND BUOY OBSERVATIONS... STATION/POSITION TIME TEMP WIND PRES WAVE SWELL AIR SEA DIR/SP/G HT/PER HT/PER/DIR (UTC) (F) (DEG/KT/KT) (MB) (FT/S) (FT/S/D) BUOY 41004 0200 61 69 210/ 19/ 23 1011.0F 4/ 4 2/ 8 BUOY 41008 0200 56 55 190/ 17/ 19 1011.9F 3/ 4 FOLLY BEACH CMAN 0200 54 210/ 13/ 16 1011.9F CAPERS NEARSHORE 0100 54 210/ 14/ 19 N/A FRIPP NEARSHORE 0100 54 210/ 17/ 21 N/A STATION/POSITION TIME TEMP WIND PRES WAVE SWELL AIR SEA DIR/SP/G HT/PER HT/PER/DIR (UTC) (F) (DEG/KT/KT) (MB) (FT/S) (FT/S/D) 5E ST. MARYS GA 0200 58 N/A 2/ 3 FRYING PAN BUOY 0200 60 67 200/ 17/ 21 1011.9F 3/ 6 2/140/ 8 BUOY 41025 0200 56 69 210/ 12/ 16 1012.2F 4/ 9 3/120/ 9 CAPE LOOKOUT NC 0200 52 180/ 4/ 4 1011.9F BUOY 41002 0141 66 72 250/ 16/ 19 1014.1F 5/ 7 3/250/ 7 BUOY 41010 0200 67 75 210/ 10/ 14 1015.1F 3/ 6 3/340/ 6 ST AUGUSTINE FL 0200 52 190/ 7/ 8 1014.8F $$

USA.gov is the U.S. government's official web portal to all federal, state and local government web resources and services.